Location: Hylvaty SDH
(49.9612°N, 16.4057°E)
Time: 19:49:44
(UTC+02:00)

Transit 4A - Pass Details

Date: 18 August 2020
Orbit: 862 x 982 km, 66.8° (Epoch: 28 September)

Event Time Altitude Azimuth Distance (km) Brightness Sun altitude
Rises 15:52:48 0° 323° (NW) 3,645 11.1 38.6°
Reaches altitude 10° 15:55:25 10° 328° (NNW) 2,711 10.5 38.2°
Maximum altitude 16:01:38 53° 45° (NE) 1,187 8.6 37.3°
Drops below altitude 10° 16:07:54 10° 122° (ESE) 2,732 10.2 36.5°
Sets 16:10:32 0° 127° (SE) 3,677 10.8 36.1°
